Location: Unspecified
(43.4354°N, 0.0000°E)
Time: 18:31:56
(UTC+00:00)

Vanguard 2 Rocket - Pass Details

Date: 23 June 2019
Orbit: 554 x 3326 km, 32.9° (Epoch: 15 July)

Event Time Altitude Azimuth Distance (km) Brightness Sun altitude
Rises 21:40:38 0° 237° (WSW) 3,851 10.1 -15.6°
Reaches altitude 10° 21:42:59 10° 230° (SW) 3,165 9.6 -15.9°
Maximum altitude 21:50:39 43° 161° (SSE) 2,291 8.4 -16.6°
Drops below altitude 10° 22:03:38 10° 97° (E) 5,295 10.4 -17.8°
Sets 22:08:53 0° 93° (E) 6,692 11.0 -18.2°
